• Join FlightAware (Why Join?)
  • Login
  • US Flag 
08:02AM EDT


 

Airport Tracker/Info


-or-


 

Live Flight TrackerFlight Track Log ✈ RPA4937 ✈ 04-May-2013 ✈ KRAP - KDEN

Flight Track Log - Related Links

Times and Time Zones

All times are in EDT time to prevent confusion due to time zone crossing. See the RPA4937 flight status page for this flight to view local times or setup timezone preferences in your user account.

Time Position Orientation Groundspeed Altitude Reporting Facility
EDT Latitude Longitude Course Direction KTS MPH feet Rate Location/Type
03:55PM 44.0508 -103.0636 304° West 165 190 3,700  Level Denver Center
03:56PM 44.0750 -103.1128 304° West 205 236 5,800 2,400 Climbing Denver Center
03:57PM 44.0539 -103.1867 248° West 243 280 8,100 2,100 Climbing Denver Center
03:57PM 44.0433 -103.1881 185° South 265 305 8,600 2,280 Climbing Denver Center
03:58PM 43.9606 -103.1994 186° South 266 306 11,200 2,280 Climbing Denver Center
03:59PM 43.8858 -103.2056 183° South 272 313 13,400 2,220 Climbing Denver Center
04:00PM 43.7956 -103.2225 188° South 286 329 15,800 1,860 Climbing Denver Center
04:01PM 43.7172 -103.2325 185° South 293 337 17,300 1,260 Climbing Denver Center
04:02PM 43.6358 -103.2450 186° South 302 348 18,500 1,380 Climbing Denver Center
04:03PM 43.5414 -103.2561 185° South 305 351 20,200 1,560 Climbing Denver Center
04:04PM 43.4631 -103.2667 186° South 300 345 21,700 1,500 Climbing Denver Center
04:05PM 43.3731 -103.2794 186° South 293 337 23,300 1,080 Climbing Denver Center
04:06PM 43.2956 -103.2903 186° South 292 336 24,000 300 Climbing Denver Center
04:08PM 43.2119 -103.3025 186° South 306 352 24,000  Level Denver Center
04:09PM 43.1075 -103.3161 185° South 331 381 24,000  Level Denver Center
04:10PM 43.0144 -103.3297 186° South 348 400 24,000  Level Denver Center
04:11PM 42.9078 -103.3436 185° South 344 396 24,000  Level Denver Center
04:12PM 42.8178 -103.3556 186° South 340 391 24,000  Level Denver Center
04:13PM 42.7278 -103.3692 186° South 339 390 24,000  Level Denver Center
04:14PM 42.6239 -103.3831 186° South 337 388 24,000  Level Denver Center
04:15PM 42.5339 -103.3944 185° South 338 389 24,000  Level Denver Center
04:16PM 42.4306 -103.4081 186° South 334 384 24,000  Level Denver Center
04:17PM 42.3408 -103.4208 186° South 336 387 24,000  Level Denver Center
04:18PM 42.2525 -103.4328 186° South 334 384 24,000  Level Denver Center
04:19PM 42.1492 -103.4472 186° South 333 383 24,000  Level Denver Center
04:20PM 42.0597 -103.4589 186° South 335 386 24,000  Level Denver Center
04:21PM 41.9567 -103.4733 186° South 332 382 24,000  Level Denver Center
04:22PM 41.8667 -103.4853 186° South 336 387 24,000  Level Denver Center
04:23PM 41.7783 -103.4992 187° South 335 386 24,000  Level Denver Center
04:24PM 41.6739 -103.5156 187° South 335 386 24,000  Level Denver Center
04:25PM 41.5992 -103.5264 186° South 338 389 24,000  Level Denver Center
04:26PM 41.4800 -103.5433 186° South 336 387 24,000 -120 Level Denver Center
04:27PM 41.3906 -103.5564 186° South 337 388 23,800 -660 Descending Denver Center
04:28PM 41.2858 -103.5711 186° South 340 391 22,700 -1,020 Descending Denver Center
04:29PM 41.1972 -103.5839 186° South 336 387 21,700 -1,260 Descending Denver Center
04:30PM 41.1092 -103.5997 188° South 334 384 20,200 -1,740 Descending Denver Center
04:31PM 41.0053 -103.6117 185° South 335 386 18,200 -1,740 Descending Denver Center
04:32PM 40.9189 -103.6239 186° South 338 389 16,700 -1,140 Descending Denver Center
04:33PM 40.8397 -103.6364 187° South 338 389 16,000 -360 Descending Denver Center
04:34PM 40.7469 -103.7103 211° Southwest 325 374 16,000  Level Denver Center
04:35PM 40.6547 -103.7825 211° Southwest 327 376 16,000 -300 Level Denver Center
04:36PM 40.6008 -103.8228 210° Southwest 330 380 15,400 -840 Descending Denver Center
04:37PM 40.4897 -103.9050 209° Southwest 339 390 14,300 -1,080 Descending Denver Center
04:38PM 40.4050 -103.9706 211° Southwest 340 391 13,300 -660 Descending Denver Center
04:39PM 40.3339 -104.0328 214° Southwest 296 341 13,000 -180 Descending Denver Center
04:40PM 40.2792 -104.1108 227° Southwest 289 333 13,000  Level Denver Center
04:41PM 40.2189 -104.1917 226° Southwest 291 335 13,000  Level Denver Center
04:42PM 40.1631 -104.2650 225° Southwest 287 330 13,000  Level Denver Center
04:43PM 40.1061 -104.3414 226° Southwest 294 338 13,000  Level Denver Center
04:44PM 40.0667 -104.3833 219° Southwest 290 334 13,000 -420 Level Denver TRACON
04:45PM 40.0167 -104.4667 232° Southwest 291 335 12,400 -960 Descending Denver TRACON
04:46PM 39.9500 -104.5000 201° Southwest 291 335 11,100 -720 Descending Denver TRACON
04:47PM 39.8667 -104.5000 180° South 269 310 11,000 -120 Descending Denver TRACON
04:48PM 39.8372 -104.5092 193° South 255 293 11,000 -480 Level Denver Center
04:49PM 39.7669 -104.5153 184° South 228 262 10,300 -1,260 Descending Denver Center
04:50PM 39.7067 -104.5242 186° South 221 254 8,400 -1,140 Descending Denver Center
04:51PM 39.6514 -104.5681 211° Southwest 234 269 8,000 -240 Descending Denver Center
04:52PM 39.6569 -104.6467 275° West 218 251 8,000  Level Denver Center
04:53PM 39.7139 -104.6647 346° North 220 253 8,000 -420 Level Denver Center
04:54PM 39.7739 -104.6614 North 216 249 7,200 -1,080 Descending Denver Center
04:55PM 39.8178 -104.6611 360° North 131 151 5,800 -900 Descending Denver Center
04:56PM 39.8444 -104.6619 359° North 112 129 5,400 -420 Descending Denver Center
04:58PM 39.8500 -104.6667 237° Southwest  Level FlightAware Approximate